This is the latest recevied weather packets stored in our database for station/object N5CNB-2. If no packets are shown the sender has not sent any weather packets the latest 10 day(s).
| Time | Temp. | Humidity | Pressure | Rain* | Wind** | Luminosity | Snow |
|---|---|---|---|---|---|---|---|
| 1777834856 | 25.56° C | 43% | 1021.3 hPa | 0 mm | - | - | - |
| 1777833964 | 25.56° C | 45% | 1021.5 hPa | 0 mm | - | - | - |
| 1777833064 | 25° C | 46% | 1021.7 hPa | 0 mm | - | - | - |
| 1777832168 | 25° C | 43% | 1022 hPa | 0 mm | - | - | - |
| 1777831253 | 25° C | 42% | 1022 hPa | 0 mm | - | - | - |
| 1777830354 | 25° C | 43% | 1022.3 hPa | 0 mm | - | - | - |
| 1777829460 | 25° C | 49% | 1022.6 hPa | 0 mm | - | - | - |
| 1777828556 | 24.44° C | 46% | 1022.7 hPa | 0 mm | - | - | - |
| 1777827654 | 24.44° C | 49% | 1022.9 hPa | 0 mm | - | - | - |
| 1777826755 | 23.89° C | 48% | 1023.1 hPa | 0 mm | - | - | - |
| 1777825867 | 23.89° C | 52% | 1023.2 hPa | 0 mm | - | - | - |
| 1777824956 | 23.33° C | 50% | 1023.1 hPa | 0 mm | - | - | - |
| 1777824050 | 22.78° C | 55% | 1023.1 hPa | 0 mm | - | - | - |
| 1777823159 | 22.22° C | 55% | 1023.2 hPa | 0 mm | - | - | - |
| 1777822254 | 22.22° C | 57% | 1023.1 hPa | 0 mm | - | - | - |
| 1777821355 | 21.67° C | 57% | 1023 hPa | 0 mm | - | - | - |
| 1777820453 | 21.11° C | 62% | 1023 hPa | 0 mm | - | - | - |
| 1777819562 | 20.56° C | 66% | 1022.8 hPa | 0 mm | - | - | - |
| 1777818658 | 19.44° C | 67% | 1022.8 hPa | 0 mm | - | - | - |
| 1777817755 | 18.89° C | 77% | 1022.7 hPa | 0 mm | - | - | - |
| 1777816852 | 17.22° C | 83% | 1022.7 hPa | 0 mm | - | - | - |
| 1777815985 | 15.56° C | 89% | 1022.8 hPa | 0 mm | - | - | - |
| 1777815061 | 14.44° C | 95% | 1022.6 hPa | 0 mm | - | - | - |
| 1777814152 | 13.33° C | 96% | 1022.5 hPa | 0 mm | - | - | - |
| 1777813255 | 12.78° C | 96% | 1022.3 hPa | 0 mm | - | - | - |
* Rain latest hour (hover to see other rain measurements)
** Current wind speed in m/s (hover to see current wind gust speed)